Regional Weather Roundup
Issued by NWS

Home | Current Version | Previous Version | Text Only | Print | Product List | Glossary Off
Versions: 1 2 3 4 5 6 7 8 9 10 11 12 13 14 15 16 17 18 19 20 21 22 23 24 25 26 27

000
ASUS45 KSLC 191410
RWRUT

UTAH REGIONAL WEATHER ROUNDUP
NATIONAL WEATHER SERVICE SALT LAKE CITY UT
700 AM MST THU JAN 19 2017

UTZ001>011-023>025-191500-

NORTHERN UTAH

CITY           SKY/WX    TMP DP  RH WIND       PRES   REMARKS
BRIGHAM CITY     N/A     24  19  81 CALM      29.80S
HILL AFB       FLURRIES  28  23  80 SE5       29.77S WCI  23
LOGAN          CLOUDY    18  14  84 N6        29.77F FOG     WCI  10
OGDEN          CLOUDY    24  20  84 CALM      29.78R FOG
SALT LAKE CITY LGT SNOW  27  23  85 NW5       29.78S FOG     WCI  22
TOOELE VALLEY  LGT SNOW  27  27 100 CALM      29.79S
WENDOVER       CLOUDY    23  19  86 CALM      29.80S
HEBER CITY     CLOUDY    32  19  59 S3        29.74S
WEST JORDAN    CLOUDY    33  33 100 S16       29.77S WCI  23

$$

UTZ011>015-024>027-191500-

CENTRAL/NORTHEAST UTAH

CITY           SKY/WX    TMP DP  RH WIND       PRES   REMARKS
PROVO AIRPORT  LGT SNOW  34  25  69 CALM      29.81S
MOAB/CANYONLAN PTCLDY    30  26  85 CALM      29.84S
DELTA          CLOUDY    32  32 100 S10       29.79S VSB 3/4 WCI  24
PRICE          CLOUDY    24  19  81 N3        29.81F
RICHFIELD      CLOUDY    36  30  80 SW13      29.81S WCI  27
ROOSEVELT      FLURRIES   9   5  85 CALM      29.95S
VERNAL         CLOUDY    10   7  87 CALM      29.92S

$$

UTZ013>016-019>022-027-191500-

SOUTHERN UTAH

CITY           SKY/WX    TMP DP  RH WIND       PRES   REMARKS
BRYCE CANYON   LGT SNOW  23  20  88 CALM      29.85R FOG
CEDAR CITY     CLOUDY    32  29  88 SE5       29.82R WCI  27
MILFORD        LGT SNOW  33  31  92 S20       29.80F FOG     WCI  21
ST GEORGE      CLOUDY    41  34  75 NE3       29.92S
HANKSVILLE     CLOUDY    27  27 100 MISG      29.89R
KANAB          CLOUDY    34  34 100 CALM      29.94S
BLANDING       MOCLDY    26  25  94 NE5       29.97S WCI  21

$$

REGIONAL REPORTS     COLORADO/ARIZONA

CITY           SKY/WX    TMP DP  RH WIND       PRES   REMARKS
CRAIG, CO      CLOUDY     1  -3  83 W5        29.85R WCI  -9
GRAND JUNCTION CLOUDY    27  24  89 SE9       29.86F WCI  18
RIFLE, CO      CLOUDY    19  17  92 SE5       29.90R WCI  12
MONTROSE, CO   CLOUDY    24  18  77 SE5       29.91S WCI  18
CORTEZ, CO     CLOUDY    20  18  92 NE5       29.92R WCI  13
COLORADO CITY  LGT RAIN  34  34 100 CALM      29.92S
PAGE, AZ       CLOUDY    37  28  70 N3        29.87R
GRAND CANYON   LGT SNOW  31  30  96 SW17G25   29.92R WCI  19
KINGMAN, AZ    CLOUDY    44  30  57 E6        29.92R
FLAGSTAFF, AZ  LGT SNOW  30  27  88 SW9       29.94S FOG     WCI  22

$$

REGIONAL REPORTS    NEVADA/IDAHO/WYOMING

CITY           SKY/WX    TMP DP  RH WIND       PRES   REMARKS
LAS VEGAS, NV  CLOUDY    52  37  56 SW12      29.83R
ELY, NY        LGT SNOW  28  27  96 S13       29.78R VSB 3/4 WCI  17
ELKO, NV       CLOUDY    34  28  79 S6        29.71S WCI  29
POCATELLO, ID  FLURRIES  30  28  92 N6        29.70F WCI  24
BURLEY, ID     LGT SNOW  34  31  88 S22G29    29.67R FOG     WCI  22
FORT BRIDGER,  CLOUDY    13   7  79 CALM      29.75S
EVANSTON, WY   CLOUDY    27  13  55 W3        29.71S
ROCK SPRINGS,  CLOUDY     1  -1  91 CALM      29.75S

$$




USA.gov is the U.S. government's official web portal to all federal, state and local government web resources and services.